Regional Weather Roundup
Issued by NWS

Home | Current Version | Previous Version | Graphics & Text | Print | Product List | Glossary On
Versions: 1 2 3 4 5 6 7 8 9 10 11 12 13 14 15 16 17 18 19 20 21 22 23 24 25 26 27 28 29 30 31 32 33 34 35 36 37 38 39 40 41 42 43 44 45 46 47 48 49 50
000
ASUS45 KTFX 252310
RWRMT
MONTANA REGIONAL WEATHER ROUNDUP
NATIONAL WEATHER SERVICE GREAT FALLS MT
500 PM MDT MON MAY 25 2015

NOTE: "FAIR" INDICATES FEW OR NO CLOUDS BELOW 12000 FEET WITH NO
SIGNIFICANT WEATHER AND/OR OBSTRUCTIONS TO VISIBILITY.

MTZ001>007-043-260000-
WEST OF THE DIVIDE

CITY           SKY/WX    TMP DP  RH WIND       PRES   REMARKS
KALISPELL      MOCLDY    67  44  43 SW9       29.88S
MISSOULA       CLOUDY    59  48  67 N17G29    29.92R
BUTTE          PTSUNNY   64  35  34 S18       29.90R
MULLAN PASS    CLOUDY    46  44  93 CALM      29.98S
DEER LODGE       N/A     61  39  44 W15G24    29.89F
EUREKA           N/A     70  45  40 S6        29.88S
HAMILTON         N/A     64  41  42 E6        29.88R
LIBBY            N/A     61  50  67 S9        29.91S
RONAN            N/A     54  50  86 SW1       30.02R
THOMPSON FALLS   N/A     57  51  80 SE2       29.99F
$$

MTZ008-052>055-260000-
SOUTHWEST MONTANA

CITY           SKY/WX    TMP DP  RH WIND       PRES   REMARKS
BOZEMAN        SUNNY     69  39  33 E7        29.86F
DILLON         MOSUNNY   66  36  32 SW8       29.86F
W YELLOWSTONE  MOSUNNY   57  39  51 S9        29.95S
THREE FORKS      N/A     70  64  81 E3        29.87F
TWIN BRIDGES     N/A     69  33  26 S10       29.87F
$$

MTZ009-010-012-014-046-048-049-054-260000-
EAST SLOPES AND CENTRAL MONTANA

CITY           SKY/WX    TMP DP  RH WIND       PRES   REMARKS
CUT BANK       CLOUDY    60  43  53 W17G29    29.87R
GREAT FALLS    MOSUNNY   71  43  36 E10       29.83F
MALMSTROM AFB  MOSUNNY   68  44  41 E7        29.83F
HELENA         MOSUNNY   73  39  29 E10       29.83F
CONRAD           N/A     70  45  40 E9        29.88F
$$

MTZ011-013-016-021-045-047-050-051-260000-
NORTH CENTRAL MONTANA

CITY           SKY/WX    TMP DP  RH WIND       PRES   REMARKS
HAVRE          SUNNY     77  36  22 SE10      29.81F
LEWISTOWN      SUNNY     71  42  35 MISG      29.88S
N BAR RANCH    MOCLDY    61  45  55 CALM      29.92S
CHINOOK          N/A     75  34  22 E8        29.82F
FORT BENTON      N/A     73  43  33 E7        29.83F
$$

MTZ017>020-022>027-061-062-260000-
NORTHEAST MONTANA

CITY           SKY/WX    TMP DP  RH WIND       PRES   REMARKS
GLASGOW        PTSUNNY   74  43  32 SE25G32   29.83R
JORDAN           N/A     65  53  65 SE15G26   29.86R
SIDNEY         MOSUNNY   73  48  40 S9        29.87S
WOLF POINT     MOSUNNY   74  47  38 S8G17     29.86S
MALTA            N/A     77  41  27 SE2       29.80F
POPLAR           N/A     73  45  35 S14       29.87S
SCOBEY           N/A     73  42  32 SE10      29.85S
$$

MTZ028>42-056>058-260000-
SOUTHCENTRAL AND SOUTHEAST MONTANA

CITY           SKY/WX    TMP DP  RH WIND       PRES   REMARKS
BAKER          CLOUDY    65  51  60 E15       29.91S
BILLINGS       MOSUNNY   70  45  40 E7        29.88F
LIVINGSTON     MOSUNNY   68  40  35 SE9       29.87F
MILES CITY     CLOUDY    64  52  64 NE10      29.89S
BIG TIMBER       N/A     66  43  42 E7        29.89S
EKALAKA          N/A     60  50  69 E8        29.91S
FORSYTH          N/A     61  54  77 S9        29.89R
LAUREL           N/A     69  42  37 N1        29.88F
ROUNDUP          N/A     69  44  40 N1        29.80F
$$

REGIONAL REPORTS...DAKOTAS

CITY           SKY/WX    TMP DP  RH WIND       PRES   REMARKS
WILLISTON      CLOUDY    71  45  39 W15       29.85R
MINOT          PTSUNNY   74  44  34 N12       29.81R
DICKINSON      CLOUDY    66  47  50 SE7       29.88S
BEACH          FAIR      64  50  59 SE13      29.91S
CROSBY         FAIR      77  36  22 S3        29.83S
WATFORD CITY   FAIR      68  45  42 S10       29.84S
BISMARCK       PTSUNNY   68  54  60 W12       29.84S
GRAND FORKS    PTSUNNY   74  50  42 S12       29.77R
FARGO          CLOUDY    65  54  67 NE8       29.80R
BUFFALO SD       N/A     58  52  80 E10       29.85R
RAPID CITY     LGT RAIN  57  54  89 NE6       29.87R
$$

REGIONAL REPORTS...WYOMING/IDAHO/WASHINGTON

CITY           SKY/WX    TMP DP  RH WIND       PRES   REMARKS
GILLETTE       CLOUDY    56  47  71 N12       29.93R
SHERIDAN       PTSUNNY   62  49  62 N7        29.93R
BUFFALO WY     PTSUNNY   58  46  64 NW6       29.95S
CODY           MOSUNNY   59  43  55 CALM      29.93F
YELLOWSTONE LA   N/A     46  39  76 W9        30.06R
IDAHO FALLS    TSTM      59  42  53 E6        29.90F
SALMON         PTSUNNY   70  41  35 SW8       29.83S
BOISE          CLOUDY    68  48  48 S18G29    29.85R
SPOKANE        CLOUDY    60  53  77 NE6       29.88F THUNDER
$$

REGIONAL REPORTS...ALBERTA

CITY           SKY/WX    TMP DP  RH WIND       PRES   REMARKS
EDMONTON       PTSUNNY   77  39  25 S9        29.81F
CALGARY        CLOUDY    68  39  34 VRB7      29.86S
LETHBRIDGE     PTSUNNY   72  39  30 S9G22     29.81S
MEDICINE HAT   PTSUNNY   79  36  21 E14       29.81F
$$

REGIONAL REPORTS...SASKATCHEWAN

CITY           SKY/WX    TMP DP  RH WIND       PRES   REMARKS
SWIFT CURRENT  PTSUNNY   73  36  25 NE7       29.85F
REGINA         MOSUNNY   79  37  22 SW10      29.82F
SASKATOON      PTSUNNY   81  32  17 W10G17    29.80F
$$


USA.gov is the U.S. government's official web portal to all federal, state and local government web resources and services.